ASH6252 KCRP-KSAT

Flight info

Callsign ASH6252
Flight time 0h 25m
Altitude 16000
Route ATHIS CRVZA CRVZA2
Aircraft E75L/M-SDE3GILORVW/S

Departure

Time 2026-05-07 21:21
Airport Corpus Christi International Airport (KCRP)

Arrival

Time 2026-05-07 21:46
Airport San Antonio International Airport (KSAT)
Time Latitude Longitude Altitude Speed Heading
2026-05-07 21:17 27.77350 -97.50418 49 ft 4 kts 303°
2026-05-07 21:17 27.77409 -97.50493 52 ft 18 kts 315°
2026-05-07 21:18 27.77502 -97.50593 52 ft 19 kts 315°
2026-05-07 21:18 27.77604 -97.50708 52 ft 24 kts 315°
2026-05-07 21:18 27.77688 -97.50800 52 ft 27 kts 316°
2026-05-07 21:18 27.77828 -97.50956 50 ft 27 kts 309°
2026-05-07 21:19 27.77828 -97.51041 52 ft 10 kts 221°
2026-05-07 21:19 27.77761 -97.51111 50 ft 12 kts 214°
2026-05-07 21:19 27.77736 -97.51136 49 ft 6 kts 273°
2026-05-07 21:19 27.77739 -97.51218 51 ft 8 kts 251°
2026-05-07 21:20 27.77682 -97.51276 49 ft 14 kts 193°
2026-05-07 21:20 27.77576 -97.51198 50 ft 41 kts 136°
2026-05-07 21:20 27.77175 -97.50749 51 ft 120 kts 136°
2026-05-07 21:20 27.76413 -97.49906 245 ft 176 kts 129°
2026-05-07 21:21 27.75799 -97.48692 1042 ft 188 kts 93°
2026-05-07 21:21 27.76225 -97.47265 1899 ft 209 kts 48°
2026-05-07 21:21 27.77639 -97.46657 2687 ft 245 kts 358°
2026-05-07 21:21 27.79199 -97.47565 3628 ft 263 kts 314°
2026-05-07 21:22 27.80217 -97.49235 5086 ft 247 kts 304°
2026-05-07 21:22 27.81451 -97.50533 6585 ft 252 kts 332°
2026-05-07 21:22 27.83236 -97.51192 7224 ft 287 kts 345°
2026-05-07 21:22 27.85208 -97.51951 7970 ft 314 kts 333°
2026-05-07 21:23 27.87212 -97.53159 8783 ft 338 kts 327°
2026-05-07 21:23 27.89083 -97.54847 9802 ft 350 kts 311°
2026-05-07 21:23 27.90660 -97.56960 10960 ft 355 kts 305°
2026-05-07 21:23 27.92185 -97.59194 12052 ft 364 kts 305°
2026-05-07 21:24 27.93746 -97.61465 12995 ft 376 kts 304°
2026-05-07 21:24 27.95364 -97.63846 13911 ft 387 kts 303°
2026-05-07 21:24 27.96995 -97.66313 14776 ft 395 kts 302°
2026-05-07 21:24 27.98616 -97.68848 15718 ft 399 kts 301°
2026-05-07 21:25 28.00230 -97.71417 16718 ft 402 kts 300°
2026-05-07 21:25 28.01830 -97.74032 17641 ft 406 kts 299°
2026-05-07 21:25 28.03413 -97.76718 18372 ft 413 kts 298°
2026-05-07 21:25 28.04982 -97.79495 18906 ft 423 kts 297°
2026-05-07 21:26 28.06540 -97.82362 19455 ft 431 kts 296°
2026-05-07 21:26 28.08312 -97.85037 19369 ft 419 kts 307°
2026-05-07 21:26 28.10518 -97.87269 17251 ft 437 kts 317°
2026-05-07 21:26 28.13088 -97.89373 14106 ft 475 kts 321°
2026-05-07 21:27 28.15753 -97.91582 14071 ft 444 kts 320°
2026-05-07 21:27 28.18027 -97.93538 14737 ft 395 kts 318°
2026-05-07 21:27 28.20140 -97.95399 15208 ft 386 kts 317°
2026-05-07 21:27 28.22285 -97.97322 15788 ft 399 kts 316°
2026-05-07 21:28 28.24485 -97.99308 16206 ft 408 kts 316°
2026-05-07 21:28 28.26721 -98.01327 15993 ft 413 kts 316°
2026-05-07 21:28 28.28964 -98.03339 15701 ft 406 kts 317°
2026-05-07 21:28 28.31163 -98.05318 16030 ft 400 kts 316°
2026-05-07 21:29 28.33350 -98.07302 16877 ft 405 kts 315°
2026-05-07 21:29 28.35574 -98.09329 17407 ft 414 kts 315°
2026-05-07 21:29 28.37836 -98.11383 17369 ft 419 kts 315°
2026-05-07 21:29 28.40123 -98.13453 16397 ft 423 kts 316°
2026-05-07 21:30 28.42441 -98.15547 15780 ft 412 kts 316°
2026-05-07 21:30 28.44587 -98.17486 16258 ft 393 kts 316°
2026-05-07 21:30 28.46750 -98.19454 16193 ft 401 kts 316°
2026-05-07 21:30 28.48949 -98.21450 16086 ft 405 kts 316°
2026-05-07 21:31 28.51156 -98.23450 15983 ft 406 kts 316°
2026-05-07 21:31 28.53365 -98.25456 15973 ft 406 kts 316°
2026-05-07 21:31 28.55572 -98.27461 15974 ft 406 kts 316°
2026-05-07 21:31 28.57781 -98.29471 15974 ft 407 kts 316°
2026-05-07 21:32 28.59966 -98.31460 15972 ft 407 kts 316°
2026-05-07 21:32 28.62176 -98.33472 15974 ft 407 kts 316°
2026-05-07 21:32 28.64391 -98.35492 15966 ft 408 kts 316°
2026-05-07 21:32 28.66606 -98.37512 15970 ft 407 kts 316°
2026-05-07 21:33 28.68816 -98.39529 15976 ft 407 kts 316°
2026-05-07 21:33 28.71022 -98.41543 15967 ft 406 kts 317°
2026-05-07 21:33 28.73224 -98.43554 15974 ft 405 kts 316°
2026-05-07 21:33 28.75425 -98.45568 15860 ft 408 kts 317°
2026-05-07 21:34 28.77646 -98.47600 15166 ft 407 kts 317°
2026-05-07 21:34 28.79840 -98.49604 14273 ft 402 kts 318°
2026-05-07 21:34 28.82013 -98.51595 13416 ft 399 kts 318°
2026-05-07 21:34 28.84132 -98.53532 13030 ft 383 kts 319°
2026-05-07 21:35 28.86456 -98.54984 12454 ft 385 kts 340°
2026-05-07 21:35 28.89130 -98.55294 11967 ft 390 kts
2026-05-07 21:35 28.91815 -98.54985 11408 ft 383 kts
2026-05-07 21:35 28.94433 -98.54760 10906 ft 372 kts
2026-05-07 21:36 28.96981 -98.54643 10415 ft 362 kts 359°
2026-05-07 21:36 28.99465 -98.54573 9933 ft 353 kts 359°
2026-05-07 21:36 29.01897 -98.54524 9483 ft 344 kts 358°
2026-05-07 21:36 29.04265 -98.54501 9029 ft 336 kts 358°
2026-05-07 21:37 29.06582 -98.54477 8578 ft 330 kts 358°
2026-05-07 21:37 29.08855 -98.54449 8199 ft 323 kts 359°
2026-05-07 21:37 29.11093 -98.54517 7898 ft 321 kts 349°
2026-05-07 21:37 29.13176 -98.55187 7573 ft 310 kts 337°
2026-05-07 21:38 29.15157 -98.56058 7329 ft 301 kts 337°
2026-05-07 21:38 29.17104 -98.56846 7084 ft 294 kts 340°
2026-05-07 21:38 29.19028 -98.57570 6840 ft 287 kts 341°
2026-05-07 21:38 29.20926 -98.58252 6636 ft 286 kts 341°
2026-05-07 21:39 29.22830 -98.58931 6439 ft 287 kts 342°
2026-05-07 21:39 29.24741 -98.59614 6143 ft 288 kts 341°
2026-05-07 21:39 29.26646 -98.60295 5941 ft 285 kts 342°
2026-05-07 21:39 29.28535 -98.60957 5720 ft 282 kts 342°
2026-05-07 21:40 29.30384 -98.61604 5490 ft 276 kts 343°
2026-05-07 21:40 29.32185 -98.62226 5243 ft 265 kts 343°
2026-05-07 21:40 29.33918 -98.62838 4963 ft 256 kts 343°
2026-05-07 21:40 29.35651 -98.63053 4468 ft 248 kts 15°
2026-05-07 21:41 29.37089 -98.62191 4325 ft 226 kts 43°
2026-05-07 21:41 29.38255 -98.60994 4343 ft 227 kts 46°
2026-05-07 21:41 29.39394 -98.59790 4277 ft 220 kts 46°
2026-05-07 21:41 29.40511 -98.58657 4049 ft 210 kts 44°
2026-05-07 21:42 29.41589 -98.57582 3807 ft 201 kts 43°
2026-05-07 21:42 29.42629 -98.56552 3550 ft 194 kts 45°
2026-05-07 21:42 29.43636 -98.55561 3385 ft 189 kts 44°
2026-05-07 21:42 29.44606 -98.54613 3294 ft 174 kts 44°
2026-05-07 21:43 29.45494 -98.53741 3127 ft 163 kts 44°
2026-05-07 21:43 29.46303 -98.52942 2914 ft 146 kts 45°
2026-05-07 21:43 29.47046 -98.52202 2707 ft 138 kts 44°
2026-05-07 21:43 29.47769 -98.51489 2512 ft 138 kts 42°
2026-05-07 21:44 29.48499 -98.50766 2254 ft 139 kts 41°
2026-05-07 21:44 29.49208 -98.50061 1902 ft 134 kts 40°
2026-05-07 21:44 29.49905 -98.49359 1572 ft 129 kts 39°
2026-05-07 21:44 29.50570 -98.48706 1288 ft 124 kts 37°
2026-05-07 21:45 29.51227 -98.48059 1111 ft 126 kts 39°
2026-05-07 21:45 29.51907 -98.47401 943 ft 132 kts 39°
2026-05-07 21:45 29.52622 -98.46701 810 ft 137 kts 40°
2026-05-07 21:45 29.53245 -98.46087 796 ft 84 kts 40°
2026-05-07 21:46 29.53562 -98.45779 796 ft 33 kts 39°
2026-05-07 21:46 29.53663 -98.45690 796 ft 13 kts 13°
2026-05-07 21:46 29.53727 -98.45741 796 ft 12 kts 288°
2026-05-07 21:46 29.53697 -98.45816 796 ft 13 kts 228°
2026-05-07 21:47 29.53629 -98.45893 796 ft 14 kts 220°
2026-05-07 21:47 29.53549 -98.45972 796 ft 16 kts 220°
2026-05-07 21:47 29.53459 -98.46061 796 ft 18 kts 221°
2026-05-07 21:47 29.53359 -98.46160 796 ft 20 kts 221°
2026-05-07 21:48 29.53251 -98.46270 796 ft 22 kts 221°
2026-05-07 21:48 29.53132 -98.46385 796 ft 23 kts 220°
2026-05-07 21:48 29.53006 -98.46508 794 ft 25 kts 220°
2026-05-07 21:48 29.52878 -98.46632 794 ft 19 kts 220°
2026-05-07 21:49 29.52794 -98.46714 794 ft 16 kts 220°
2026-05-07 21:49 29.52713 -98.46806 794 ft 14 kts 252°
2026-05-07 21:49 29.52763 -98.46898 794 ft 12 kts 311°
2026-05-07 21:49 29.52817 -98.46968 794 ft 13 kts 312°
2026-05-07 21:50 29.52860 -98.47042 794 ft 9 kts 256°
2026-05-07 21:50 29.52817 -98.47094 794 ft 8 kts 230°
2026-05-07 21:50 29.52822 -98.47126 794 ft 5 kts 311°
2026-05-07 21:50 29.52844 -98.47154 794 ft 1 kts 310°
2026-05-07 21:51 29.52846 -98.47157 794 ft 0 kts 310°